Location: Six Mile Lake
(44.9000°N, 79.7170°W)
Time: 00:30:13
(UTC-04:00)

JY1SAT - Pass Details

Date: 05 July 2022
Orbit: 564 x 586 km, 97.6° (Epoch: 17 August)

Event Time Altitude Azimuth Distance (km) Brightness Sun altitude
Exits shadow 22:55:19 19° 178° (S) 1,410 ? -14.4°
Maximum altitude 22:58:11 68° 258° (WSW) 637 ? -14.7°
Drops below altitude 10° 23:02:20 10° 342° (NNW) 1,918 ? -15.1°
Sets 23:04:31 0° 345° (NNW) 2,821 ? -15.3°
